This is the latest recevied weather packets stored in our database for station/object KH6DH-13. If no packets are shown the sender has not sent any weather packets the latest 10 day(s).
| Time | Temp. | Humidity | Pressure | Rain* | Wind** | Luminosity | Snow |
|---|---|---|---|---|---|---|---|
| 1777756899 | 27.22° C | - | - | 0 mm | 0.89 m/s, 177° | - | - |
| 1777756298 | 26.67° C | - | - | 0 mm | 2.68 m/s, 70° | - | - |
| 1777755697 | 26.67° C | - | - | 0 mm | 1.79 m/s, 79° | - | - |
| 1777755096 | 26.67° C | - | - | 0 mm | 2.24 m/s, 118° | - | - |
| 1777754495 | 26.11° C | - | - | 0 mm | 3.13 m/s, 117° | - | - |
| 1777753894 | 26.67° C | - | - | 0 mm | 1.34 m/s, 120° | - | - |
| 1777753293 | 26.11° C | - | - | 0 mm | 2.68 m/s, 101° | - | - |
| 1777752692 | 26.11° C | - | - | 0 mm | 2.68 m/s, 359° | - | - |
| 1777752091 | 25.56° C | - | - | 0 mm | 1.79 m/s, 87° | - | - |
| 1777751490 | 25.56° C | - | - | 0 mm | 3.13 m/s, 80° | - | - |
| 1777750889 | 25° C | - | - | 0 mm | 3.13 m/s, 128° | - | - |
| 1777750288 | 25° C | - | - | 0 mm | 2.24 m/s, 20° | - | - |
| 1777749687 | 25° C | - | - | 0 mm | 1.79 m/s, 31° | - | - |
| 1777749086 | 25° C | - | - | 0 mm | 1.79 m/s, 30° | - | - |
| 1777748485 | 24.44° C | - | - | 0 mm | 0.89 m/s, 17° | - | - |
| 1777747884 | 24.44° C | - | - | 0 mm | 1.79 m/s, 65° | - | - |
| 1777747283 | 24.44° C | - | - | 0 mm | 2.24 m/s, 56° | - | - |
| 1777746682 | 23.89° C | - | - | 0 mm | 2.68 m/s, 304° | - | - |
| 1777746081 | 23.89° C | - | - | 0 mm | 2.24 m/s, 75° | - | - |
| 1777745479 | 23.33° C | - | - | 0 mm | 1.79 m/s, 83° | - | - |
| 1777744878 | 23.33° C | - | - | 0 mm | 0.45 m/s, 260° | - | - |
| 1777744277 | 22.78° C | - | - | 0 mm | 0.45 m/s, 7° | - | - |
| 1777743676 | 22.78° C | - | - | 0 mm | 1.34 m/s, 142° | - | - |
| 1777743075 | 22.22° C | - | - | 0 mm | 1.34 m/s, 76° | - | - |
| 1777742474 | 22.22° C | - | - | 0 mm | 1.79 m/s, 21° | - | - |
* Rain latest hour (hover to see other rain measurements)
** Current wind speed in m/s (hover to see current wind gust speed)